Tracking 19484 objects as of 20-Jan-2019
HD Live streaming from Space Station
objects crossing your sky now

D-STAR ONE SPARROW

Track D-STAR ONE SPARROW now!
10-day predictions


NORAD ID: 43881
Int'l Code: 2018-111F
Perigee: 576.9 km
Apogee: 594.9 km
Inclination: 97.7 °
Period: 96.2 minutes
Semi major axis: 6956 km
RCS: Unknown
Launch date: December 27, 2018
Source: Germany (GER)
Launch site: VOSTOCHNY COSMODROME (VOSTO)
aabbcc
Your satellite tracking list
Your tracking list is empty




NASA's NSSDC Master Catalog

Two Line Element Set (TLE):
1 43881U 18111F   19019.55405342 +.00000677 +00000-0 +65150-4 0  9995
2 43881 097.7278 289.6762 0012962 159.4727 200.7017 14.96158071003496
Source of the keplerian elements: AFSPC